Regional Weather Roundup
Issued by NWS

Home | Current Version | Previous Version | Text Only | Print | Product List | Glossary Off
Versions: 1 2 3 4 5 6 7 8 9 10 11 12 13 14 15 16 17 18 19 20 21 22 23 24 25 26 27 28 29 30 31 32 33 34 35 36 37 38 39 40 41 42 43 44 45 46 47 48 49 50

000
ASUS43 KLOT 260612
RWRIL

ILLINOIS REGIONAL WEATHER ROUNDUP
NATIONAL WEATHER SERVICE CHICAGO/ROMEOVILLE IL
100 AM CDT TUE MAY 26 2015

NOTE: "FAIR" INDICATES FEW OR NO CLOUDS BELOW 12,000 FEET WITH NO
SIGNIFICANT WEATHER AND/OR OBSTRUCTIONS TO VISIBILITY.

* THESE STATIONS ARE NOT UNDER NWS QUALITY CONTROL. THEY ALSO MAY NOT
  REPORT WEATHER SUCH AS PRECIPITATION OR FOG.

ILZ001-002-007-009-015-016-024-260700-
NORTHWEST ILLINOIS

CITY           SKY/WX    TMP DP  RH WIND       PRES   REMARKS
MOLINE         PTCLDY    68  62  81 S7        29.87F
6HR MIN TEMP:  65; 6HR MAX TEMP:  77;

STERLING*      PTCLDY    66  61  82 S5        29.90F
SAVANNA*       PTCLDY    68  61  78 S7        29.88F
$$

ILZ003-004-008-010-011-017-018-260700-
NORTH CENTRAL ILLINOIS

CITY           SKY/WX    TMP DP  RH WIND       PRES   REMARKS
ROCKFORD       PTCLDY    70  60  70 S9        29.92S
6HR MIN TEMP:  70; 6HR MAX TEMP:  80;

FREEPORT*      CLEAR     65  61  86 S8        29.92S
ROCHELLE*      CLEAR     67  64  88 S13       29.92F
DE KALB*       CLEAR     63  59  88 S9        29.94F
PERU*          PTCLDY    70  64  82 S14       29.92F
$$

ILZ005-006-012>014-019>023-260700-
NORTHEAST ILLINOIS

CITY           SKY/WX    TMP DP  RH WIND       PRES   REMARKS
CHICAGO-OHARE  PTCLDY    71  62  73 S13       29.93F
6HR MIN TEMP:  65; 6HR MAX TEMP:  77;

CHICAGO-MIDWAY PTCLDY    73  64  73 S13       29.95S
6HR MIN TEMP:  73; 6HR MAX TEMP:  81;

AURORA         CLEAR     67  59  75 S8        29.95S
6HR MIN TEMP:  67; 6HR MAX TEMP:  78;

LANSING*       CLEAR     68  61  77 S7        29.97F
JOLIET*        CLEAR     71  65  82 S6        29.96S
WAUKEGAN       FAIR      66  59  78 S9        29.92S
6HR MIN TEMP:  64; 6HR MAX TEMP:  77;

DUPAGE AIRPORT CLEAR     68  61  78 S10       29.94S
6HR MIN TEMP:  65; 6HR MAX TEMP:  77;

KANKAKEE*      CLEAR     68  65  89 S10G17    29.99S
WHEELING       CLEAR     70  60  70 S10       29.95S
6HR MIN TEMP:  65; 6HR MAX TEMP:  78;

MORRIS*        CLEAR     67  63  84 S7        29.94S
ROMEOVILLE*    CLEAR     69  62  80 S14G20    29.96F
NORTHERLY ISL    N/A     72  62  71 S18         N/A
$$

LMZ740>746-260700-
SOUTHERN LAKE MICHIGAN

STATION/POSITION SKY/WX   TEMP    WIND        PRES    VSBY  WAVE
                          AIR SEA DIR/SP/G                  HT/PER
                          (F)     (DEG/KT/KT) (MB)    (MI)  (FT/S)
SOUTHERN BUOY              48 38  190/ 10/ 12 1014.0F         1
HARRISON CRIB              72     200/ 20/ 22   N/A
BURNHAM HARBOR             72     210/ 12/ 16   N/A
CALUMET HARBOR             72     190/  7/ 11   N/A
BURNS HARBOR               72     190/ 12/ 16 1015.2F
MICHIGAN CITY              72     170/ 12/ 17   N/A
MICHIGAN CITY 6N           63 52  210/ 10/ 12   N/A           1/ 2
ST. JOSEPH                 62 54  210/ 10/ 12   N/A           1/ 3
$$

ILZ025>027-034>036-040-047-049-050-058-095>099-260700-
WEST-CENTRAL ILLINOIS

CITY           SKY/WX    TMP DP  RH WIND       PRES   REMARKS
QUINCY         MOCLDY    73  65  75 S15       29.88F
GALESBURG*     PTCLDY    70  66  87 S8        29.90R
MACOMB*        PTCLDY    70  67  88 S12       29.92S
JACKSONVILLE*  MOCLDY    73  68  84 S12       29.92F
PITTSFIELD*    CLOUDY    71  66  83 S9        29.91F
$$

ILZ028>032-037-038-041>044-048-051>054-059>061-260700-
CENTRAL ILLINOIS

CITY           SKY/WX    TMP DP  RH WIND       PRES   REMARKS
PONTIAC        PTCLDY    70  67  88 S9        29.96F
BLOOMINGTON    PTCLDY    69  67  93 S16       29.97F
PEORIA         PTCLDY    73  66  78 S13       29.92F
6HR MIN TEMP:  73; 6HR MAX TEMP:  82;

LACON*         MOCLDY    70  65  82 S9        29.91F
LINCOLN*       CLEAR     71  66  85 S10       29.92F
SPRINGFIELD    PTCLDY    72  66  81 S14G26    29.94S
6HR MIN TEMP:  72; 6HR MAX TEMP:  82;

TAYLORVILLE    PTCLDY    68  64  88 S13       29.96F
$$

ILZ033-039-045-046-055>057-062-063-260700-
EAST-CENTRAL ILLINOIS

CITY           SKY/WX    TMP DP  RH WIND       PRES   REMARKS
CHAMPAIGN      MOCLDY    68  65  90 S12       29.99F
DANVILLE*      PTCLDY    68  65  91 S9        29.98F
RANTOUL*       PTCLDY    69  66  90 S7        29.99S
MATTOON        MOCLDY    67  65  93 S12       29.99F
PARIS*         MOCLDY    67  65  93 SE5       30.02F
$$

ILZ079-100>102-260700-
SOUTHWEST ILLINOIS

CITY           SKY/WX    TMP DP  RH WIND       PRES   REMARKS
ALTON          CLOUDY    71  71 100 SE10      29.95F
BELLEVILLE     CLOUDY    70  70  99 SE10      29.93F
CAHOKIA*       CLOUDY    73  67  81 SE13      29.92F
SPARTA*        CLOUDY    70  67  92 S9        29.96F
$$

ILZ064>066-069>071-074>076-080>082-084>086-088>090-092>094-260700-
SOUTH-CENTRAL ILLINOIS

CITY           SKY/WX    TMP DP  RH WIND       PRES   REMARKS
CARBONDALE     CLOUDY    71  67  87 S14       29.97F
6HR MIN TEMP:  69; 6HR MAX TEMP:  76;

CAIRO*         CLOUDY    71  68  92 SE10      29.97F
EFFINGHAM*     MOCLDY    68  65  88 SE10      30.01F
MARION         CLOUDY    72  68  88 S9        29.99F
MT. VERNON     CLOUDY    70  64  83 SE9       30.00F
CENTRALIA*     CLOUDY    69  65  87 SE13G18   29.98S
SALEM*         MOCLDY    70  67  88 SE6       29.99F
METROPOLIS*    CLOUDY    70  70 100 CALM      29.99F
$$

ILZ067-068-072-073-078-083-087-091-260700-
SOUTHEAST ILLINOIS

CITY           SKY/WX    TMP DP  RH WIND       PRES   REMARKS
LAWRENCEVILLE  MOCLDY    68  66  93 S9        30.03F
FLORA*         PTCLDY    67  65  93 SE9       30.00F
FAIRFIELD*     CLOUDY    69  67  94 SE6       29.99F
HARRISBURG*    MOCLDY    69  69  98 SE8       30.00F
ROBINSON*      PTCLDY    67  65  95 S8        30.04F
CARMI*         MOCLDY    70  63  78 SE10      30.00F
$$

ABBREVIATIONS USED IN REMARKS
   TC - TEMPERATURE IN CELSIUS
  WCI - WIND CHILL INDEX
   HX - HEAT INDEX
  VSB - VISIBILITY
$$




USA.gov is the U.S. government's official web portal to all federal, state and local government web resources and services.